Location: Shades State Park
(39.9310°N, 87.0690°W)
Time: 14:44:43
(UTC-04:00)

Daily predictions for brighter satellites

Satellite Brightness Start Highest point End
(mag) Time Altitude Azimuth Time Altitude Azimuth Time Altitude Azimuth
BREEZE-M DEB (TANK) 4.2 21:31:25 10° NNW 21:33:35 22° NNE 21:38:14 10° ENE
Spot 2 Rocket 3.7 21:28:49 10° SSE 21:33:56 83° WSW 21:39:04 10° NNW
Cosmos 2084 4.4 21:33:53 10° NNW 21:37:17 29° NE 21:40:45 10° ESE
Helios 1B rocket 3.2 21:34:11 10° NNE 21:37:54 32° E 21:41:35 10° SSE
Tsikada Rocket 4.0 21:35:02 10° S 21:41:16 87° E 21:47:29 10° N
USA 215 4.2 21:36:47 10° E 21:42:44 38° NNE 21:48:42 10° NW
Cosmos 1315 Rocket 3.7 21:39:51 10° SSW 21:43:48 55° WNW 21:47:50 10° N
Lacrosse 4 Rocket 3.7 21:43:11 10° NNE 21:45:40 14° NE 21:48:08 10° E
Cosmos 1892 2.6 21:44:14 10° S 21:48:04 74° E 21:51:54 10° N
NOSS 3-2 (C) 3.7 21:43:31 10° SW 21:49:29 79° NW 21:56:05 10° NNE
USA 186 2.7 21:47:19 10° S 21:49:50 40° W 21:52:33 10° NNW
ISS -3.9 21:47:18 10° SW 21:50:33 81° SE 21:53:49 10° NE
Cosmos 1943 Rocket 3.0 21:47:14 10° SSE 21:51:57 29° ESE 21:56:40 10° NE
Cosmos 1634 Rocket 4.1 21:53:06 10° N 21:59:20 61° E 22:05:34 10° SSE
Cosmos 1900 4.4 21:55:17 10° NNW 22:00:29 84° ENE 22:05:27 11° SSE
Tiangong 2 1.3 21:57:43 10° WNW 22:00:53 60° SSW 22:03:24 15° SE
Envisat 3.4 21:55:54 10° S 22:00:56 68° WSW 22:06:01 10° NNW
Spot 1 4.5 21:56:57 10° SSE 22:01:40 65° ENE 22:06:38 10° N
CENTAUR R/B 2.7 21:58:21 10° S 22:03:57 47° ESE 22:10:16 10° NE
Cosmos 1340 4.3 22:04:01 10° NNE 22:06:52 20° ENE 22:08:45 14° ESE
Molniya-1 1.9 22:05:53 10° SSW 22:07:41 74° SE 22:09:16 10° NE
COSMOS 2455 2.8 22:03:29 10° SSW 22:09:30 87° ESE 22:15:33 10° NNE
Helios 1A 3.0 22:06:19 10° SSE 22:10:29 87° WSW 22:14:43 10° NNW
SPOT 5 4.2 22:08:10 14° ESE 22:11:58 30° ENE 22:16:30 10° N
CZ-4B DEB 2.5 22:09:44 14° SSE 22:12:07 68° ENE 22:15:03 10° N
Cosmos 2369 Rocket 2.2 22:07:43 10° SSW 22:13:21 81° ESE 22:19:04 10° NNE
Cosmos 1125 Rocket 3.7 22:10:26 10° S 22:15:30 50° ESE 22:20:33 10° NNE
Resurs 01 Rocket 3.9 22:14:06 10° SSW 22:17:36 23° W 22:21:07 10° NW
SAR-Lupe-4 3.5 22:17:05 15° SSE 22:19:57 73° ENE 22:23:32 10° N
Cosmos 1606 3.1 22:17:57 10° N 22:21:36 44° E 22:23:47 21° SE
Lacrosse 5 rocket 1.2 22:19:39 10° SW 22:23:12 71° NW 22:26:51 10° NE
Shenzhou-11 Module 3.2 22:21:34 10° W 22:24:19 30° SSW 22:25:36 21° SSE
Cosmos 1346 Rocket 3.9 22:20:45 10° NNW 22:24:33 44° W 22:28:21 10° SSW
YAOGAN 6 3.3 22:24:07 10° S 22:27:46 54° W 22:31:24 10° NNW
Cosmos 1939 Rocket 4.3 22:26:31 10° SSW 22:30:21 37° W 22:34:12 10° NNW
Cosmos 2279 Rocket 4.0 22:26:56 10° N 22:33:10 66° E 22:38:02 17° SSE
ATLAS 5 CENTAUR R/B 2.8 22:31:06 10° NNW 22:37:00 54° NE 22:41:08 22° ESE
Okean 1-7 3.1 22:34:58 10° N 22:39:24 79° W 22:42:46 17° S
MetOp-B 4.1 22:35:41 19° SSE 22:39:34 74° ENE 22:44:55 10° N
Meteor 1-27 Rocket 4.1 22:34:36 10° N 22:40:11 48° ENE 22:43:17 24° SE
Meteor 1-10 Rocket 4.3 22:34:53 10° N 22:40:52 84° E 22:45:26 18° S
GPS 2-04 Rocket1 3.0 22:37:44 10° WSW 22:41:12 38° S 22:42:02 33° SSE
SAR-Lupe-1 4.2 22:39:07 20° S 22:41:26 69° WSW 22:45:00 10° NNW
Aureole 3 3.4 22:40:51 10° SSW 22:43:51 51° W 22:46:46 10° N
H-2A R/B 2.6 22:42:09 24° SE 22:45:01 45° ENE 22:50:05 10° N
Meteor 1-29 4.5 22:44:03 10° N 22:47:19 38° WNW 22:50:34 10° SW
Meteor 2-6 Rocket 4.3 22:43:43 10° N 22:49:42 90° SW 22:54:03 20° S
Cosmos 158 Rocket 3.7 22:45:17 10° NNW 22:50:12 83° ENE 22:52:45 28° SSE
Cosmos 1656 Rocket 4.1 22:47:59 25° SSE 22:50:31 38° ESE 22:55:36 10° NE
ARGOS 3.1 22:47:36 23° SSE 22:50:59 78° ENE 22:56:22 10° N
Cosmos 1408 3.2 22:52:26 13° SSW 22:55:42 56° W 22:59:23 10° N
DNEPR-1 R/B 4.2 22:52:59 10° SW 22:58:15 66° WNW 23:02:45 10° NNE
Cosmos 1782 3.7 22:58:38 10° NNW 23:02:29 46° W 23:04:51 21° SSW
Cosmos 1733 Rocket 3.0 23:01:46 38° SSE 23:03:14 62° E 23:07:31 10° NNE
Cosmos 1825 3.2 23:03:11 12° SSW 23:06:25 44° W 23:10:04 10° N
ERS-1 Rocket 3.7 23:03:32 17° S 23:07:13 48° W 23:12:05 10° NNW
SL-08 RB Rocket 3.7 23:07:02 34° S 23:09:03 86° WSW 23:13:45 10° NNW
Nimbus 7 Rocket 4.3 23:05:58 10° NNE 23:11:51 70° ESE 23:15:19 26° S
Cosmos 1048 Rocket 4.4 23:12:14 10° NNW 23:17:26 57° WSW 23:19:56 29° S
Landsat 7 3.9 23:17:28 45° SE 23:18:40 61° ENE 23:23:22 10° N
Cosmos 1862 3.9 23:19:33 28° SSW 23:21:25 55° W 23:25:20 10° N
Cosmos 2227 Rocket 4.3 23:19:09 10° NNE 23:22:14 15° NE 23:24:44 11° ENE
Meteor 2-20 4.4 23:20:24 35° SSE 23:23:01 66° E 23:29:05 10° NNE
Lacrosse 4 Rocket 1.6 23:20:25 10° NNW 23:24:54 70° WSW 23:25:48 53° S
USA 215 3.3 23:22:28 35° SSE 23:25:25 73° SW 23:32:00 10° NW
ISS -0.9 23:24:59 10° WNW 23:27:21 18° NNW 23:29:44 10° NNE
Cosmos 2219 3.9 23:23:20 10° N 23:28:47 42° ENE 23:30:23 34° E
Cosmos 2026 Rocket 4.5 23:28:05 37° ESE 23:29:14 40° E 23:35:00 10° NNE
ATLAS CENTAUR R/B 3.1 23:36:09 20° NE 23:36:09 20° NE 23:37:30 10° NE
Terra 1.9 23:33:08 54° ESE 23:33:49 60° ENE 23:38:31 10° N
Cosmos 1812 4.2 23:30:40 10° NNE 23:33:20 26° ENE 23:33:20 26° ENE
BREEZE-M DEB (TANK) 3.8 23:36:02 38° ESE 23:36:02 38° ESE 23:44:11 10° ENE
Cosmos 1943 Rocket 3.5 23:30:20 10° SW 23:35:31 38° WNW 23:40:41 10° N
CARTOSAT-1 3.5 23:36:19 63° E 23:36:33 64° ENE 23:40:51 10° N
DMSP B5D2-2 4.0 23:31:29 10° NNE 23:36:44 89° ESE 23:38:33 42° SSW
Cosmos 2251 Rocket 3.6 23:34:54 10° NNW 23:40:06 60° ENE 23:40:56 53° ESE
Cosmos 1674 Rocket 3.5 23:36:48 10° NNW 23:41:07 73° W 23:41:35 65° SW
Cosmos 1378 Rocket 3.6 23:37:39 10° N 23:42:02 61° E 23:42:02 61° E
SPOT 1/Viking Rocket 4.0 23:41:31 36° SSW 23:43:18 54° W 23:48:25 10° NNW
Cosmos 2344 3.9 23:35:58 10° SW 23:43:34 69° NW 23:52:06 10° NNE
Cosmos 1437 3.9 23:41:00 10° N 23:43:12 41° N 23:43:12 41° N
SPOT 5 4.3 23:47:25 24° SW 23:49:51 35° W 23:54:43 10° NNW
H-2A R/B 2.3 23:53:59 54° NE 23:53:59 54° NE 23:57:34 10° N
Cosmos 405 Rocket 4.1 23:51:33 10° N 23:53:54 30° NE 23:53:54 30° NE
